Overview Statistics Trail Chart Weather Telemetry Raw packets
 

This is the latest recevied weather packets stored in our database for station/object N6GPM. If no packets are shown the sender has not sent any weather packets the latest 10 day(s).

<< 29 30 31 32 33 34 35 >>
Time Temp. Humidity Pressure Rain* Wind** Luminosity Snow
1788480298 26.11° C 47% 1015.3 hPa 0 mm - 321 W/m² -
1788479994 26.67° C 47% 1015.4 hPa 0 mm - 342 W/m² -
1788479690 26.11° C 46% 1015.3 hPa 0 mm - 362 W/m² -
1788479389 26.67° C 46% 1015.7 hPa 0 mm - 384 W/m² -
1788479085 26.67° C 45% 1015.6 hPa 0 mm - 402 W/m² -
1788478781 26.67° C 45% 1015.8 hPa 0 mm - 426 W/m² -
1788478477 27.22° C 44% 1015.7 hPa 0 mm - 448 W/m² -
1788478174 27.78° C 42% 1015.6 hPa 0 mm - 471 W/m² -
1788477867 27.22° C 43% 1015.3 hPa 0 mm - 489 W/m² -
1788477567 27.78° C 42% 1015.4 hPa 0 mm - 509 W/m² -
1788477262 28.33° C 42% 1015.7 hPa 0 mm - 528 W/m² -
1788476956 27.78° C 41% 1015.5 hPa 0 mm - 550 W/m² -
1788476652 27.78° C 41% 1015.7 hPa 0 mm - 569 W/m² -
1788476349 27.78° C 40% 1015.6 hPa 0 mm - 589 W/m² -
1788476044 27.78° C 40% 1015.7 hPa 0 mm - 609 W/m² -
1788475740 28.33° C 40% 1015.9 hPa 0 mm - 624 W/m² -
1788475435 27.78° C 40% 1015.8 hPa 0 mm - 642 W/m² -
1788475131 27.78° C 40% 1015.8 hPa 0 mm - 658 W/m² -
1788474824 27.78° C 40% 1015.9 hPa 0 mm - 678 W/m² -
1788474519 27.78° C 40% 1016 hPa 0 mm - 698 W/m² -
1788474218 28.89° C 39% 1015.9 hPa 0 mm - 711 W/m² -
1788473914 28.33° C 38% 1015.9 hPa 0 mm - 724 W/m² -
1788473613 28.89° C 38% 1016.1 hPa 0 mm - 737 W/m² -
1788473310 28.89° C 36% 1016.1 hPa 0 mm - 754 W/m² -
1788473005 28.89° C 36% 1016.3 hPa 0 mm - 768 W/m² -

* Rain latest hour (hover to see other rain measurements)
** Current wind speed in m/s (hover to see current wind gust speed)